Meteo pe oră la Dadra and Nagar Haveli

Astăzi, 14 Aprilie, Miercuri

Timp Temperatura Precipitaţii Vânt Presiune Umiditate
00:00 +31°C° 0 mm 1 m/s 751 mmHg 46%
01:00 +31°C° 0 mm 1 m/s 751 mmHg 49%
02:00 +30°C° 0 mm 1 m/s 751 mmHg 52%
03:00 +30°C° 0 mm 1 m/s 751 mmHg 52%
04:00 +30°C° 0 mm 1 m/s 751 mmHg 52%
05:00 +30°C° 0 mm 1 m/s 751 mmHg 54%
06:00 +31°C° 0 mm 1 m/s 752 mmHg 50%
07:00 +32°C° 0 mm 2 m/s 752 mmHg 46%
08:00 +34°C° 0 mm 2 m/s 753 mmHg 42%
09:00 +36°C° 0 mm 2 m/s 753 mmHg 36%
10:00 +38°C° 0 mm 2 m/s 752 mmHg 29%
11:00 +39°C° 0 mm 2 m/s 752 mmHg 23%
12:00 +39°C° 0 mm 3 m/s 751 mmHg 24%
13:00 +40°C° 0 mm 4 m/s 750 mmHg 25%
14:00 +40°C° 0 mm 5 m/s 750 mmHg 26%
15:00 +39°C° 0.1 mm 5 m/s 749 mmHg 27%
16:00 +37°C° 0.1 mm 4 m/s 749 mmHg 28%
17:00 +36°C° 0.1 mm 4 m/s 749 mmHg 30%
18:00 +35°C° 0 mm 3 m/s 750 mmHg 32%
19:00 +33°C° 0 mm 3 m/s 750 mmHg 34%
20:00 +31°C° 0 mm 2 m/s 751 mmHg 36%
21:00 +31°C° 0 mm 2 m/s 751 mmHg 36%
22:00 +30°C° 0 mm 1 m/s 751 mmHg 37%
23:00 +30°C° 0 mm 1 m/s 752 mmHg 38%

Mâine, 15 Aprilie, Joi

Timp Temperatura Precipitaţii Vânt Presiune Umiditate
00:00 +30°C° 0 mm 1 m/s 751 mmHg 39%
01:00 +29°C° 0 mm 1 m/s 751 mmHg 40%
02:00 +29°C° 0 mm 1 m/s 751 mmHg 40%
03:00 +29°C° 0 mm 1 m/s 751 mmHg 42%
04:00 +28°C° 0 mm 1 m/s 751 mmHg 43%
05:00 +28°C° 0 mm 1 m/s 751 mmHg 44%
06:00 +29°C° 0 mm 1 m/s 752 mmHg 42%
07:00 +31°C° 0 mm 1 m/s 752 mmHg 40%
08:00 +30°C° 0 mm 0 m/s 753 mmHg 38%
09:00 +34°C° 0 mm 1 m/s 753 mmHg 34%
10:00 +37°C° 0 mm 2 m/s 753 mmHg 30%
11:00 +38°C° 0 mm 2 m/s 752 mmHg 26%
12:00 +40°C° 0 mm 4 m/s 751 mmHg 24%
13:00 +40°C° 0 mm 5 m/s 751 mmHg 23%
14:00 +41°C° 0 mm 6 m/s 750 mmHg 22%
15:00 +40°C° 0 mm 6 m/s 749 mmHg 22%
16:00 +39°C° 0 mm 6 m/s 749 mmHg 23%
17:00 +38°C° 0 mm 6 m/s 749 mmHg 23%
18:00 +35°C° 0 mm 5 m/s 750 mmHg 33%
19:00 +33°C° 0 mm 4 m/s 750 mmHg 43%
20:00 +30°C° 0 mm 2 m/s 751 mmHg 53%
21:00 +30°C° 0 mm 2 m/s 751 mmHg 57%
22:00 +29°C° 0 mm 1 m/s 751 mmHg 61%
23:00 +29°C° 0 mm 1 m/s 751 mmHg 64%

Poimâine, 16 Aprilie, Vineri

Timp Temperatura Precipitaţii Vânt Presiune Umiditate
00:00 +28°C° 0 mm 1 m/s 751 mmHg 66%
01:00 +28°C° 0 mm 1 m/s 751 mmHg 67%
02:00 +27°C° 0 mm 1 m/s 750 mmHg 69%
03:00 +27°C° 0 mm 1 m/s 751 mmHg 70%
04:00 +27°C° 0 mm 1 m/s 751 mmHg 71%
05:00 +26°C° 0 mm 1 m/s 751 mmHg 72%
06:00 +28°C° 0 mm 1 m/s 752 mmHg 65%
07:00 +29°C° 0 mm 1 m/s 752 mmHg 59%
08:00 +30°C° 0 mm 1 m/s 753 mmHg 52%
09:00 +32°C° 0 mm 2 m/s 753 mmHg 43%
10:00 +35°C° 0 mm 2 m/s 752 mmHg 34%
11:00 +37°C° 0 mm 3 m/s 752 mmHg 25%
12:00 +38°C° 0 mm 4 m/s 752 mmHg 24%
13:00 +38°C° 0 mm 4 m/s 751 mmHg 24%
14:00 +40°C° 0 mm 5 m/s 750 mmHg 23%
15:00 +39°C° 0 mm 5 m/s 750 mmHg 26%
16:00 +36°C° 0 mm 5 m/s 750 mmHg 28%
17:00 +35°C° 0 mm 5 m/s 750 mmHg 30%
18:00 +33°C° 0 mm 4 m/s 750 mmHg 41%
19:00 +31°C° 0 mm 3 m/s 751 mmHg 52%
20:00 +29°C° 0 mm 2 m/s 751 mmHg 63%
21:00 +29°C° 0 mm 2 m/s 751 mmHg 67%
22:00 +28°C° 0 mm 2 m/s 752 mmHg 70%
23:00 +28°C° 0 mm 1 m/s 752 mmHg 73%

17 Aprilie, Sâmbătă

Timp Temperatura Precipitaţii Vânt Presiune Umiditate
00:00 +27°C° 0 mm 1 m/s 752 mmHg 75%
01:00 +27°C° 0 mm 1 m/s 751 mmHg 77%
02:00 +27°C° 0 mm 1 m/s 751 mmHg 79%
03:00 +27°C° 0 mm 1 m/s 751 mmHg 80%
04:00 +26°C° 0 mm 1 m/s 751 mmHg 81%
05:00 +26°C° 0 mm 1 m/s 751 mmHg 82%
06:00 +27°C° 0 mm 1 m/s 752 mmHg 76%
07:00 +29°C° 0 mm 1 m/s 752 mmHg 69%
08:00 +30°C° 0 mm 1 m/s 753 mmHg 63%
09:00 +32°C° 0 mm 2 m/s 753 mmHg 54%
10:00 +35°C° 0 mm 2 m/s 753 mmHg 45%
11:00 +37°C° 0 mm 3 m/s 752 mmHg 36%
12:00 +38°C° 0 mm 4 m/s 752 mmHg 34%
13:00 +40°C° 0 mm 4 m/s 751 mmHg 32%
14:00 +40°C° 0 mm 5 m/s 750 mmHg 30%
15:00 +40°C° 0 mm 5 m/s 750 mmHg 31%
16:00 +39°C° 0 mm 5 m/s 750 mmHg 31%
17:00 +37°C° 0 mm 4 m/s 750 mmHg 32%
18:00 +35°C° 0 mm 4 m/s 751 mmHg 41%
19:00 +33°C° 0 mm 3 m/s 751 mmHg 49%
20:00 +30°C° 0 mm 3 m/s 752 mmHg 58%
21:00 +30°C° 0 mm 2 m/s 752 mmHg 64%
22:00 +29°C° 0 mm 2 m/s 752 mmHg 70%
23:00 +29°C° 0 mm 1 m/s 753 mmHg 76%

18 Aprilie, Duminică

Timp Temperatura Precipitaţii Vânt Presiune Umiditate
00:00 +28°C° 0 mm 1 m/s 752 mmHg 78%
01:00 +28°C° 0 mm 1 m/s 752 mmHg 79%
02:00 +28°C° 0 mm 1 m/s 752 mmHg 81%
03:00 +27°C° 0 mm 1 m/s 752 mmHg 81%
04:00 +27°C° 0 mm 1 m/s 752 mmHg 82%
05:00 +27°C° 0 mm 1 m/s 752 mmHg 82%
06:00 +28°C° 0 mm 1 m/s 753 mmHg 75%
07:00 +30°C° 0 mm 1 m/s 753 mmHg 68%
08:00 +31°C° 0 mm 1 m/s 753 mmHg 61%
09:00 +34°C° 0 mm 2 m/s 753 mmHg 51%
10:00 +37°C° 0 mm 2 m/s 753 mmHg 41%
11:00 +39°C° 0 mm 3 m/s 753 mmHg 32%
12:00 +41°C° 0 mm 4 m/s 752 mmHg 30%
13:00 +41°C° 0 mm 5 m/s 751 mmHg 29%
14:00 +42°C° 0 mm 5 m/s 750 mmHg 28%
15:00 +41°C° 0 mm 5 m/s 750 mmHg 28%
16:00 +40°C° 0 mm 5 m/s 750 mmHg 28%
17:00 +39°C° 0 mm 5 m/s 750 mmHg 28%
18:00 +36°C° 0 mm 5 m/s 750 mmHg 37%
19:00 +34°C° 0 mm 4 m/s 751 mmHg 47%
20:00 +31°C° 0 mm 3 m/s 751 mmHg 57%
21:00 +30°C° 0 mm 3 m/s 751 mmHg 64%
22:00 +29°C° 0 mm 2 m/s 752 mmHg 70%
23:00 +29°C° 0 mm 2 m/s 752 mmHg 76%

19 Aprilie, Luni

Timp Temperatura Precipitaţii Vânt Presiune Umiditate
00:00 +29°C° 0 mm 2 m/s 752 mmHg 78%
01:00 +28°C° 0 mm 2 m/s 751 mmHg 79%
02:00 +28°C° 0 mm 2 m/s 751 mmHg 81%
03:00 +28°C° 0 mm 2 m/s 751 mmHg 82%
04:00 +27°C° 0 mm 1 m/s 751 mmHg 84%
05:00 +27°C° 0 mm 1 m/s 751 mmHg 85%
06:00 +28°C° 0 mm 1 m/s 751 mmHg 78%
07:00 +30°C° 0 mm 1 m/s 752 mmHg 71%
08:00 +31°C° 0 mm 1 m/s 752 mmHg 64%
09:00 +34°C° 0 mm 2 m/s 752 mmHg 53%
10:00 +36°C° 0 mm 3 m/s 752 mmHg 41%
11:00 +39°C° 0 mm 3 m/s 751 mmHg 30%
12:00 +40°C° 0 mm 4 m/s 751 mmHg 29%
13:00 +40°C° 0 mm 5 m/s 750 mmHg 28%
14:00 +40°C° 0 mm 6 m/s 749 mmHg 27%
15:00 +40°C° 0 mm 5 m/s 749 mmHg 28%
16:00 +39°C° 0 mm 5 m/s 749 mmHg 30%
17:00 +37°C° 0 mm 5 m/s 749 mmHg 32%
18:00 +35°C° 0 mm 4 m/s 749 mmHg 46%
19:00 +32°C° 0 mm 4 m/s 750 mmHg 61%
20:00 +29°C° 0 mm 4 m/s 750 mmHg 75%
21:00 +29°C° 0 mm 3 m/s 751 mmHg 77%
22:00 +29°C° 0 mm 3 m/s 751 mmHg 79%
23:00 +28°C° 0 mm 2 m/s 751 mmHg 82%
Arată mai mult

Formular de consimțământ

Meteoprog și furnizorii noștri de servicii pot stoca și accesa date personale, precum cookies, identificatori de dispozitiv sau alte tehnologii similare pe dispozitivul dumneavoastră și procesa astfel de date pentru a personaliza conținutul și reclamele, dar și pentru a oferi caracteristici de social media și pentru a analiza traficul.

  • Stocarea și/sau accesarea informațiilor pe dispozitivul dumneavoastră

    Cookies, identificatori de dispozitiv sau alte informații pot fi stocate sau accesate pe dispozitiv în scopurile indicate mai sus.

  • Reclame și conținut personalizat, evaluarea reclamelor și a conținutului, informații despre audiențe și dezvoltarea produselor

    Reclamele și conținutul pot fi personalizate pe baza unui profil. Pot fi adăugate date suplimentare pentru a personaliza mai bine reclamele și conținutul. Performanța reclamelor și conținutului poate fi măsurată. Pot fi obținute informații despre utilizatorii care au văzut reclamele și conținutul. Aceste date pot fi utilizate pentru a dezvolta sau îmbunătăți experiența utilizatorilor, sistemele și software-ul.

Dând clic pe ‘Sunt de acord’, permiteți utilizarea cookie-urilor menționate, a identificatorilor de dispozitiv, balizelor web sau altor tehnologii similare. Setările pot fi modificate din browser-ul dispozitivului dumneavoastră.

În anumite scopuri, interesele legitime pot prima asupra consimțământului. Puteți citi mai multe informații în acest sens în Politica privind Confidențialitatea Datelor și Cookie.